LEMHLEIB

Guest
Details From LEMH - Menorca
To LEIB - Ibiza
Flight Number -
Tags Generated
Created
Modified
Stats Distance 145 nm / 269 km
Max Altitude 0 ft / 0 m
Waypoints 2
Social Downloads 2
Likes 0
Share VATSIM

Download

Looking for another format? Having issues loading an existing format? Contact us
Advertisement - Login to hide

Notes

Generated

Route

LEMH LEIB

ID Type Via Altitude Latitude Longitude Leg Dist Tot Dist Heading (true) Name
O LEMH APT - 0 ft / 0 m 39.85339˚ 4.21914˚ - 0 nm - -
O LEIB APT - 0 ft / 0 m 38.86694˚ 1.35887˚ 145 nm 145 nm 247° / 245° -

Altitude Profile

Advertisement - Login to hide

LEMH

Details ICAO LEMH (MAH)
Name Menorca
Region Spain
Timezone Europe/Madrid (UTC+2.0)
Stats Elevation 298 ft / 91 m (AMSL)
Location 39.862221° 4.219762°
Runways 2
Magnetic Variation 1.372° E

METAR

LEMH 220100Z AUTO 31001KT 9999 NCD 15/14 Q1011

Decode

TAF

TAF LEMH 212000Z 2121/2221 VRB03KT 9999 FEW020 TX23/2212Z TN13/2206Z TEMPO 2122/2207 27006KT BECMG 2208/2210 22010KT

Decode

Departure Runways

ID Width Length Bearing (true) Bearing (mag) Surface Threshold Offset Overrun Length
01L 148 ft / 45 m 7,723 ft / 2,354 m 8.97° 7.60° Asphalt 0 ft / 0 m 164 ft / 50 m
01R 148 ft / 45 m 6,903 ft / 2,104 m 8.97° 7.60° Asphalt 0 ft / 0 m 0 ft / 0 m
19L 148 ft / 45 m 6,903 ft / 2,104 m 188.97° 187.60° Asphalt 0 ft / 0 m 0 ft / 0 m
19R 148 ft / 45 m 7,723 ft / 2,354 m 188.97° 187.60° Asphalt 0 ft / 0 m 164 ft / 50 m

LEIB

Details ICAO LEIB (IBZ)
Name Ibiza
Region Spain
Timezone Europe/Madrid (UTC+2.0)
Stats Elevation 20 ft / 6 m (AMSL)
Location 38.872871° 1.373045°
Runways 1
Magnetic Variation 0.710° E

METAR

LEIB 220100Z VRB02KT 9999 FEW020 15/13 Q1013 NOSIG

Decode

TAF

TAF LEIB 212000Z 2121/2221 22012KT 9999 FEW020 SCT040 TX22/2212Z TN14/2206Z TEMPO 2121/2209 VRB03KT PROB30 TEMPO 2123/2206 4000 BR

Decode

Destination Runways

ID Width Length Bearing (true) Bearing (mag) Surface Threshold Offset Overrun Length
06 148 ft / 45 m 9,153 ft / 2,790 m 61.85° 61.14° Asphalt 0 ft / 0 m 213 ft / 65 m
24 148 ft / 45 m 9,153 ft / 2,790 m 241.86° 241.15° Asphalt 0 ft / 0 m 197 ft / 60 m

Approach Navaids

Runway Type Ident Frequency Range Bearing (true) Bearing (mag) Slope Elevation
06 Localiser IBI 111.10 MHz 18 nm / 33 km 62.00° 61.29° - 20 ft / 6 m (AMSL)
06 Glidescope IBI 111.10 MHz 10 nm / 19 km 62.00° 61.29° 3.00° 20 ft / 6 m (AMSL)
06 DME IBI 111.10 MHz 18 nm / 33 km - - - 20 ft / 6 m (AMSL)
24 Localiser IBZ 109.50 MHz 18 nm / 33 km 241.81° 241.10° - 15 ft / 5 m (AMSL)
24 Glidescope IBZ 109.50 MHz 10 nm / 19 km 241.86° 241.15° 3.00° 69 ft / 21 m (AMSL)
24 DME IBZ 109.50 MHz 18 nm / 33 km - - - 69 ft / 21 m (AMSL)

Popular Alternatives